Location: Dillon
(41.1766°N, 107.0923°W)
Time: 07:55:34
(UTC+00:00)

QB50P2 - Pass Details

Date: 05 July 2022
Orbit: 590 x 605 km, 97.9° (Epoch: 17 August)

Event Time Altitude Azimuth Distance (km) Brightness Sun altitude
Rises 08:51:16 0° 8° (N) 2,863 ? -22.1°
Reaches altitude 10° 08:53:28 10° 4° (N) 1,957 ? -21.9°
Maximum altitude 08:57:38 56° 287° (WNW) 721 ? -21.6°
Enters shadow 08:58:06 53° 258° (WSW) 749 ? -21.6°
